Weather in Belogorskiy

Russia / Orenburg Oblast     51°33′57″N   56°31′55″E
temp.,
°C
wind,
m/s
gust,
m/s
humid.,
%
clouds,
%
prec.,
mm/h
press.,
hPa
HPBL,
m
7 march, sun
sun723:00−6e2296100 0.3 101251
02:00−5ne4796100 1.3 1009238
05:00−5ne5996100 3.6 1007345
08:00−6n71193100 1.1 1005413
11:00−6nnw71094100 2.0 1006532
14:00−6nnw71189100 0.8 1008700
17:00−8nw7117998 0.9 1010499
20:00−14wnw45910 0.0 101473
8 march, mon
mon823:00−16w23910 0.0 101620
02:00−17ssw23920 0.0 101621
05:00−17s349325 0.0 101679
08:00−13s51393100 0.0 1015355
11:00−8ssw91687100 0.0 1013827
14:00−4sw111785100 0.1 10121144
17:00−3sw101787100 0.3 10121138
20:00−4sw81590100 0.3 1012855
9 march, tue
tue923:00−4sw81590100 0.5 1013709
02:00−5ssw71689100 0.1 1012510
05:00−6ssw71488100 0.2 1011445
08:00−6ssw71392100 0.3 1011519
11:00−4ssw71394100 0.6 1011553
14:00−3sw71196100 1.4 1011670
17:00−2sw61095100 2.2 1009668
20:00−2ssw4998100 0.8 1007512
10 march, wed
wed1023:00−2s61293100 1.2 1006550
02:00−2ssw81397100 1.0 1004726
05:00−10wnw61295100 1.3 1005342
08:00−13w51196100 0.1 1008285
11:00−12w5894100 0.1 1010340
14:00−11w6893100 0.0 1012485
17:00−11w6892100 0.1 1013623
20:00−14w4896100 0.2 1015251
11 march, thu
thu1123:00−16w379798 0.3 1016188
02:00−18w379996 0.1 1017156
05:00−22w3410095 0.1 101867
08:00−23wnw23100100 0.1 102038
11:00−20wnw3596100 0.1 1022287
14:00−19wnw469184 0.0 1023376
17:00−18wnw479170 0.0 1024471
20:00−23wnw239884 0.0 102720